Weather History for KMNH - March, 2013

Change the Weather History Date:

Monday, March 25, 2013

  Actual Average (KAPA) Record (KAPA)
Temperature  
Mean Temperature 13 °F -  
Max Temperature 26 °F 54 °F 76 °F (2012)
Min Temperature 0 °F 28 °F 1 °F (2013)
Degree Days  
Heating Degree Days 52    
Moisture  
Dew Point 6 °F    
Average Humidity 72    
Maximum Humidity 100    
Minimum Humidity 46    
Precipitation  
Precipitation 0.00 in - - ()
Sea Level Pressure  
Sea Level Pressure 30.12 in    
Wind  
Wind Speed 4 mph (SSE)    
Max Wind Speed 17 mph    
Max Gust Speed -    
Visibility 9 miles    
Events Fog , Snow    
Averages and records for this station are not official NWS values.
T = Trace of Precipitation, MM = Missing Value Source: NWS Daily Summary

Daily Weather History Graph

Daily Weather History Graph

Search for Another Location

Airport or City:

Trip Planner

Search our weather history database for the weather conditions in past years. The results will help you decide how hot, cold, wet, or windy it might be!

Date:

Astronomy

Mar. 25, 2013 Rise Set
Actual Time 6:53 AM MDT 7:15 PM MDT
Civil Twilight 6:26 AM MDT 7:42 PM MDT
Nautical Twilight 5:55 AM MDT 8:14 PM MDT
Astronomical Twilight 5:23 AM MDT 8:46 PM MDT
Moon 5:50 PM MDT (3/25) 5:37 AM MDT (3/25)
Length of Visible Light 13h 15m
Length of Day
12h 22m
Waxing Gibbous, 97% of the Moon is Illuminated
Mar 25
Waxing Gibbous
Mar 27
Full
Apr 2
Last Quarter
Apr 10
New
Apr 18
First Quarter

Hourly Weather History & Observations

Time (MDT) Temp. Windchill Dew Point Humidity Pressure Visibility Wind Dir Wind Speed Gust Speed Precip Events Conditions
12:13 AM 10.4 °F 4.0 °F 8.6 °F 92% 30.09 in 2.5 mi West 3.5 mph - N/A Snow Light Snow
12:34 AM 8.6 °F 0.1 °F 8.6 °F 100% 30.08 in 7.0 mi West 4.6 mph - N/A Snow Light Snow
12:54 AM 8.6 °F -1.3 °F 6.8 °F 92% 30.09 in 5.0 mi West 5.8 mph - N/A Snow Light Snow
1:14 AM 6.8 °F -3.5 °F 5.0 °F 92% 30.08 in 7.0 mi West 5.8 mph - N/A   Clear
1:34 AM 5.0 °F -2.1 °F 3.2 °F 92% 30.08 in 5.0 mi West 3.5 mph - N/A   Clear
1:54 AM 5.0 °F - 1.4 °F 85% 30.08 in 2.0 mi Calm Calm - N/A Snow Light Snow
2:14 AM 5.0 °F - 3.2 °F 92% 30.08 in 4.0 mi Calm Calm - N/A Snow Light Snow
2:34 AM 10.4 °F - 8.6 °F 92% 30.07 in 2.5 mi Calm Calm - N/A Snow Light Snow
2:54 AM 8.6 °F - 5.0 °F 85% 30.07 in 0.5 mi Calm Calm - N/A Fog Light Freezing Fog
3:13 AM 1.4 °F -6.2 °F -0.4 °F 92% 30.07 in 0.5 mi South 3.5 mph - N/A Snow Light Snow
3:34 AM 1.4 °F -6.2 °F -0.4 °F 92% 30.07 in 7.0 mi South 3.5 mph - N/A   Mostly Cloudy
3:54 AM 1.4 °F -6.2 °F -2.2 °F 85% 30.07 in 4.0 mi SSW 3.5 mph - N/A   Scattered Clouds
4:13 AM -0.4 °F -10.4 °F -4.0 °F 85% 30.08 in 10.0 mi SSW 4.6 mph - N/A   Scattered Clouds
4:34 AM 1.4 °F -6.2 °F -2.2 °F 85% 30.08 in 10.0 mi SSW 3.5 mph - N/A   Clear
4:53 AM -0.4 °F -8.3 °F -4.0 °F 85% 30.08 in 10.0 mi SSW 3.5 mph - N/A   Clear
5:14 AM 1.4 °F -6.2 °F -2.2 °F 85% 30.08 in 10.0 mi SSW 3.5 mph - N/A   Clear
5:34 AM -0.4 °F -8.3 °F -2.2 °F 92% 30.08 in 10.0 mi SSW 3.5 mph - N/A   Clear
5:54 AM 1.4 °F -6.2 °F -0.4 °F 92% 30.08 in 10.0 mi SSW 3.5 mph - N/A   Clear
6:14 AM -0.4 °F -8.3 °F -2.2 °F 92% 30.08 in 10.0 mi SSW 3.5 mph - N/A   Clear
6:33 AM -0.4 °F -8.3 °F -4.0 °F 85% 30.09 in 10.0 mi SSW 3.5 mph - N/A   Clear
6:54 AM 1.4 °F -8.3 °F -0.4 °F 92% 30.09 in 10.0 mi SSW 4.6 mph - N/A   Clear
7:14 AM 3.2 °F -4.2 °F -0.4 °F 85% 30.10 in 7.0 mi SSW 3.5 mph - N/A   Clear
7:34 AM 3.2 °F - -0.4 °F 85% 30.11 in 7.0 mi Calm Calm - N/A Snow Light Snow
7:54 AM 3.2 °F - 1.4 °F 92% 30.11 in 10.0 mi Calm Calm - N/A   Clear
8:14 AM 6.8 °F - 3.2 °F 85% 30.11 in 10.0 mi Calm Calm - N/A   Clear
8:34 AM 8.6 °F 2.0 °F 5.0 °F 85% 30.12 in 10.0 mi SSW 3.5 mph - N/A   Clear
8:53 AM 10.4 °F 2.2 °F 5.0 °F 79% 30.13 in 10.0 mi SSW 4.6 mph - N/A   Clear
9:13 AM 14.0 °F - 10.4 °F 86% 30.13 in 10.0 mi Calm Calm - N/A   Clear
9:34 AM 19.4 °F - 12.2 °F 74% 30.13 in 10.0 mi Calm Calm - N/A   Clear
9:54 AM 19.4 °F 14.3 °F 12.2 °F 74% 30.13 in 10.0 mi SW 3.5 mph - N/A   Clear
10:14 AM 19.4 °F - 10.4 °F 68% 30.14 in 10.0 mi Calm Calm - N/A   Clear
10:34 AM 21.2 °F - 8.6 °F 58% 30.15 in 10.0 mi Calm Calm - N/A   Clear
10:54 AM 23.0 °F - 6.8 °F 50% 30.15 in 10.0 mi Calm Calm - N/A   Clear
11:14 AM 21.2 °F 16.4 °F 6.8 °F 54% 30.15 in 10.0 mi North 3.5 mph - N/A   Clear
11:34 AM 23.0 °F - 6.8 °F 50% 30.15 in 10.0 mi Calm Calm - N/A   Clear
11:53 AM 23.0 °F - 8.6 °F 54% 30.15 in 10.0 mi Calm Calm - N/A   Clear
12:14 PM 21.2 °F 16.4 °F 6.8 °F 54% 30.15 in 10.0 mi NNE 3.5 mph - N/A   Clear
12:34 PM 23.0 °F 17.0 °F 6.8 °F 50% 30.15 in 10.0 mi NNE 4.6 mph - N/A   Clear
12:54 PM 23.0 °F 13.9 °F 5.0 °F 46% 30.15 in 10.0 mi NE 8.1 mph - N/A   Clear
1:14 PM 23.0 °F 15.8 °F 8.6 °F 54% 30.15 in 10.0 mi East 5.8 mph - N/A   Clear
1:34 PM 23.0 °F 13.9 °F 8.6 °F 54% 30.15 in 10.0 mi ENE 8.1 mph - N/A   Clear
1:54 PM 23.0 °F 17.0 °F 8.6 °F 54% 30.14 in 10.0 mi ENE 4.6 mph - N/A   Clear
2:14 PM 23.0 °F 15.8 °F 8.6 °F 54% 30.13 in 10.0 mi ESE 5.8 mph - N/A   Clear
2:34 PM 23.0 °F - 8.6 °F 54% 30.13 in 10.0 mi Calm Calm - N/A   Clear
2:54 PM 23.0 °F 18.4 °F 8.6 °F 54% 30.13 in 10.0 mi SE 3.5 mph - N/A   Clear
3:13 PM 23.0 °F - 6.8 °F 50% 30.13 in 10.0 mi Calm Calm - N/A   Clear
3:34 PM 26.6 °F 22.6 °F 8.6 °F 47% 30.12 in 10.0 mi NE 3.5 mph - N/A   Clear
3:54 PM 26.6 °F 20.0 °F 8.6 °F 47% 30.12 in 10.0 mi East 5.8 mph - N/A   Clear
4:14 PM 24.8 °F 17.9 °F 8.6 °F 50% 30.12 in 10.0 mi East 5.8 mph - N/A   Clear
4:33 PM 24.8 °F 16.9 °F 10.4 °F 54% 30.12 in 10.0 mi East 6.9 mph - N/A   Clear
4:54 PM 23.0 °F 13.9 °F 10.4 °F 59% 30.12 in 10.0 mi East 8.1 mph - N/A   Clear
5:14 PM 24.8 °F 14.6 °F 10.4 °F 54% 30.12 in 10.0 mi East 10.4 mph - N/A   Clear
5:33 PM 23.0 °F 13.9 °F 10.4 °F 59% 30.12 in 10.0 mi East 8.1 mph - N/A   Clear
5:54 PM 23.0 °F 13.9 °F 10.4 °F 59% 30.13 in 10.0 mi ENE 8.1 mph - N/A   Clear
6:14 PM 21.2 °F 10.9 °F 8.6 °F 58% 30.13 in 10.0 mi East 9.2 mph - N/A   Clear
6:34 PM 21.2 °F 12.6 °F 8.6 °F 58% 30.13 in 10.0 mi East 6.9 mph - N/A   Clear
6:54 PM 19.4 °F 9.5 °F 10.4 °F 68% 30.13 in 10.0 mi East 8.1 mph - N/A   Clear
7:13 PM 17.6 °F 10.7 °F 8.6 °F 68% 30.14 in 10.0 mi ESE 4.6 mph - N/A   Clear
7:33 PM 17.6 °F 8.2 °F 8.6 °F 68% 30.14 in 10.0 mi ESE 6.9 mph - N/A   Clear
7:54 PM 17.6 °F 9.3 °F 6.8 °F 63% 30.15 in 10.0 mi ESE 5.8 mph - N/A   Clear
8:14 PM 15.8 °F 6.1 °F 6.8 °F 68% 30.15 in 10.0 mi SE 6.9 mph - N/A   Clear
8:34 PM 17.6 °F 9.3 °F 8.6 °F 68% 30.15 in 10.0 mi SSE 5.8 mph - N/A   Clear
8:54 PM 17.6 °F 9.3 °F 6.8 °F 63% 30.15 in 10.0 mi SSE 5.8 mph - N/A   Clear
9:14 PM 15.8 °F 3.4 °F 8.6 °F 73% 30.16 in 10.0 mi SSE 10.4 mph - N/A   Clear
9:34 PM 17.6 °F 5.7 °F 8.6 °F 68% 30.15 in 10.0 mi South 10.4 mph - N/A   Clear
9:54 PM 14.0 °F 1.2 °F 8.6 °F 79% 30.15 in 10.0 mi South 10.4 mph - N/A   Clear
10:13 PM 15.8 °F 2.7 °F 10.4 °F 79% 30.15 in 10.0 mi South 11.5 mph - N/A   Clear
10:33 PM 15.8 °F 4.2 °F 10.4 °F 79% 30.15 in 10.0 mi South 9.2 mph - N/A   Clear
10:54 PM 17.6 °F 4.3 °F 10.4 °F 73% 30.15 in 10.0 mi South 12.7 mph - N/A   Clear
11:13 PM 15.8 °F 1.4 °F 10.4 °F 79% 30.15 in 10.0 mi South 13.8 mph - N/A   Clear
11:34 PM 17.6 °F 2.2 °F 10.4 °F 73% 30.14 in 10.0 mi South 17.3 mph - N/A   Clear
11:54 PM 15.8 °F 2.7 °F 8.6 °F 73% 30.13 in 10.0 mi South 11.5 mph - N/A   Clear